Temperature
3 1 1 1 2 3 3 3 2 3 5 4 3 3 3 3 3 3 3 3 4 4 5 6 6 7 7 7 8 8 8 8 9 9 9 9 10 10 10 10 10 10 11 11
1 1 2 2 3 3 3 2 2 3 4 4 3 2 3 3 2 3 3 3 3 4 5 5 6 6 6 7 7 7 7 8 8 8 9 9 9 10 10 10 10 10 10 10
0 1 2 2 2 2 2 2 2 2 3 3 3 2 2 2 3 2 2 3 3 3 4 4 5 5 6 6 6 6 7 7 7 8 8 8 9 9 9 9 9 9 10 10
0 1 2 1 1 1 1 2 2 3 2 1 2 1 1 1 1 1 1 2 2 2 3 4 4 5 5 5 5 6 6 6 7 7 7 8 8 8 9 9 9 9 9 9
-0 1 1 1 1 1 1 2 2 2 1 1 1 0 0 1 1 0 1 1 1 2 2 3 3 4 4 5 5 5 5 6 6 6 7 7 8 8 8 8 9 9 9 9
-0 1 1 0 1 1 1 1 1 1 0 0 0 0 -0 -1 -1 -1 -1 -0 0 1 2 2 3 4 4 4 5 5 5 5 6 6 6 6 7 7 8 8 8 8 8 8
-1 -0 0 0 0 0 -0 -1 -1 -1 -1 -0 0 -0 -1 -2 -1 -1 -1 -1 -1 0 1 1 2 3 3 4 4 4 4 5 5 5 6 6 6 7 7 8 8 8 8 8
-2 -2 -1 -1 -1 -1 -1 -1 -1 -1 -1 -1 -1 -1 -2 -2 -1 -1 -2 -2 -1 -1 -0 0 1 2 2 3 3 3 4 4 4 5 5 5 6 6 7 7 7 8 8 8
-3 -2 -1 -0 -0 -1 -1 -2 -2 -3 -2 -2 -2 -2 -2 -2 -2 -2 -2 -2 -2 -2 -1 -1 0 1 1 2 2 3 3 3 4 4 4 5 5 6 6 7 7 7 7 7
-3 -3 -2 -1 -1 -1 -1 -2 -3 -3 -2 -2 -2 -3 -3 -3 -3 -3 -3 -3 -3 -3 -2 -2 -1 -0 0 1 1 2 2 3 3 4 4 4 5 5 6 6 6 6 7 7
-3 -4 -3 -3 -3 -3 -3 -3 -4 -4 -3 -3 -3 -3 -3 -4 -4 -4 -3 -3 -3 -3 -3 -2 -2 -1 -1 0 1 1 2 2 3 3 3 4 4 5 5 6 6 6 6 6
-4 -5 -5 -4 -3 -3 -3 -4 -5 -4 -4 -5 -4 -4 -3 -4 -4 -4 -4 -3 -4 -4 -3 -3 -2 -2 -1 -0 -0 0 1 1 2 2 3 3 4 4 5 5 5 6 6 6
-4 -5 -5 -4 -4 -4 -4 -5 -5 -5 -5 -5 -5 -4 -4 -4 -4 -4 -4 -4 -4 -4 -4 -3 -3 -2 -2 -2 -1 -1 -0 0 1 1 2 2 3 4 4 4 5 5 5 5
-3 -6 -5 -4 -4 -5 -5 -5 -5 -5 -6 -6 -6 -5 -5 -5 -5 -5 -5 -4 -5 -5 -4 -4 -4 -3 -3 -2 -2 -1 -1 -0 0 1 1 2 2 3 3 4 4 4 5 5
-5 -6 -6 -6 -5 -5 -5 -5 -5 -6 -6 -6 -6 -6 -5 -6 -6 -5 -5 -5 -5 -5 -5 -5 -4 -4 -3 -3 -3 -2 -2 -1 -1 -0 0 1 1 2 3 3 3 4 4 4
-6 -6 -6 -6 -5 -5 -5 -5 -5 -5 -6 -6 -6 -6 -5 -5 -5 -5 -5 -6 -6 -6 -6 -5 -5 -5 -4 -4 -3 -3 -2 -2 -1 -1 -0 0 1 1 2 3 3 3 4 4
-7 -7 -6 -6 -6 -6 -6 -6 -6 -6 -6 -6 -6 -6 -6 -6 -6 -6 -6 -6 -6 -6 -6 -6 -5 -5 -5 -4 -4 -4 -3 -2 -2 -1 -1 -1 -0 0 1 2 2 2 3 3
-7 -7 -7 -7 -7 -6 -5 -6 -6 -6 -6 -7 -6 -6 -6 -6 -6 -6 -6 -6 -6 -6 -6 -6 -6 -5 -5 -5 -4 -4 -3 -3 -2 -2 -2 -1 -1 -0 0 1 1 2 2 2
-7 -7 -7 -7 -7 -7 -6 -6 -7 -7 -7 -7 -7 -7 -6 -6 -7 -6 -6 -6 -7 -7 -7 -6 -6 -6 -6 -5 -5 -4 -4 -3 -3 -3 -2 -2 -2 -1 -0 0 1 1 1 2
-7 -8 -8 -8 -7 -6 -5 -6 -6 -7 -7 -7 -7 -7 -7 -7 -8 -7 -6 -7 -7 -7 -7 -7 -6 -6 -6 -5 -5 -5 -5 -4 -4 -3 -3 -2 -2 -2 -1 -1 -0 0 1 1
-8 -9 -9 -9 -8 -7 -7 -7 -6 -7 -6 -6 -6 -7 -7 -8 -8 -7 -7 -7 -7 -7 -7 -7 -7 -6 -6 -6 -6 -5 -5 -5 -4 -4 -3 -3 -2 -2 -2 -1 -0 -0 0 0
-8 -9 -10 -9 -9 -7 -7 -8 -7 -7 -6 -6 -6 -6 -7 -7 -7 -7 -7 -8 -7 -7 -7 -7 -7 -7 -6 -6 -6 -6 -5 -5 -5 -4 -4 -3 -3 -2 -2 -1 -1 -1 -0 -0
-9 -8 -9 -8 -7 -6 -6 -6 -5 -6 -6 -6 -6 -7 -7 -8 -8 -8 -8 -8 -8 -8 -8 -8 -8 -7 -7 -6 -6 -6 -6 -5 -5 -4 -4 -4 -3 -3 -2 -2 -2 -1 -1 -1
-9 -9 -9 -9 -8 -7 -6 -6 -6 -6 -6 -6 -7 -7 -8 -8 -8 -8 -8 -8 -8 -8 -8 -8 -8 -7 -7 -7 -7 -7 -6 -6 -5 -5 -5 -4 -4 -3 -3 -3 -2 -2 -2 -2
-9 -10 -10 -9 -9 -8 -6 -6 -6 -6 -7 -7 -7 -7 -8 -8 -8 -8 -8 -8 -8 -8 -8 -8 -8 -8 -7 -7 -7 -7 -7 -6 -6 -5 -5 -5 -4 -4 -4 -3 -3 -3 -2 -2
-9 -9 -9 -8 -7 -8 -6 -6 -6 -7 -7 -7 -8 -8 -8 -8 -9 -9 -9 -8 -8 -8 -8 -8 -8 -8 -8 -8 -7 -7 -7 -7 -6 -6 -6 -6 -5 -5 -5 -4 -4 -4 -3 -3
Wind_Speed
4 5 3 2 2 3 2 1 3 4 2 1 4 3 3 1 2 2 2 2 3 4 4 4 4 4 4 3 2 1 1 1 1 2 3 4 4 4 3 4 6 8 8 9
5 4 5 3 3 2 2 2 3 4 2 1 3 3 2 0 0 1 1 2 3 4 5 5 4 4 3 3 2 0 0 0 1 1 3 4 5 4 4 3 5 7 8 8
2 3 5 4 5 4 3 3 3 4 4 0 2 2 2 2 1 2 3 3 4 4 4 4 4 4 3 3 3 2 1 1 1 1 1 1 2 2 2 3 3 4 7 8
3 5 6 5 5 4 4 4 5 4 1 2 1 3 3 3 3 4 5 4 4 5 4 4 5 5 4 3 3 2 2 1 1 1 1 2 4 4 4 5 4 4 6 7
3 5 6 5 5 4 4 7 6 4 2 1 1 2 4 2 2 5 6 5 5 5 4 4 4 4 5 4 4 3 2 2 1 1 1 2 3 3 3 4 4 4 4 5
2 3 2 4 5 4 6 4 3 1 2 2 3 3 3 1 3 5 6 7 6 6 5 5 5 5 5 5 5 4 3 3 2 1 1 3 4 3 4 5 6 5 4 3
7 5 5 4 6 5 5 3 3 3 1 4 1 2 3 2 3 3 4 6 7 6 6 6 7 7 7 6 6 5 4 4 4 2 2 3 4 5 6 7 7 6 4 3
5 6 6 5 3 3 3 2 3 2 3 3 1 3 2 1 3 3 4 5 7 8 7 6 6 6 6 7 6 5 5 5 4 3 3 3 3 4 4 5 6 7 6 5
2 5 5 5 3 1 1 1 1 2 1 2 3 2 4 4 5 5 6 7 8 8 9 8 7 6 6 6 6 5 5 5 5 4 3 3 3 3 4 4 5 5 5 5
2 4 6 5 4 4 2 1 2 2 0 2 3 2 3 4 5 5 6 7 8 9 9 9 8 7 7 6 6 4 4 4 5 5 3 3 4 3 3 4 5 5 5 5
1 1 5 4 2 3 3 2 1 1 1 2 3 4 3 2 3 3 4 6 7 8 8 8 8 7 7 6 6 5 4 5 5 5 5 3 4 3 2 2 3 5 5 6
0 2 3 5 4 2 1 1 2 1 2 2 2 5 2 1 2 3 5 6 7 7 7 8 7 7 7 7 6 5 5 5 5 5 5 4 3 3 2 2 3 3 5 6
1 3 3 6 4 4 2 1 1 2 1 2 2 5 2 2 5 5 6 7 7 8 8 8 8 8 8 8 7 7 6 5 5 5 5 4 4 3 2 2 3 3 4 5
3 2 4 5 5 3 4 4 1 1 2 3 5 8 8 7 7 7 7 7 7 7 7 8 8 8 8 8 8 7 7 6 5 5 5 4 4 4 3 2 2 3 3 4
3 1 3 6 6 4 5 6 3 3 5 6 6 7 9 7 7 7 6 7 7 8 9 9 9 8 9 9 8 8 8 7 6 5 5 5 5 4 3 2 2 2 3 4
2 1 2 4 4 4 6 7 5 5 5 6 6 9 7 6 5 6 7 8 8 8 9 9 9 9 9 9 9 9 8 8 6 5 5 5 5 5 3 2 2 2 3 3
1 2 0 4 5 5 6 5 5 3 3 4 7 7 5 5 6 7 7 7 8 8 9 9 9 9 9 9 8 8 8 8 6 6 5 5 5 5 4 3 2 3 3 3
4 2 2 2 4 4 6 2 3 4 5 5 6 5 4 5 6 5 4 5 7 8 9 10 9 9 9 8 8 8 8 7 6 6 6 5 5 4 4 3 3 3 3 3
3 4 2 1 2 7 6 2 2 3 6 4 4 6 5 6 5 5 3 3 5 7 8 8 8 8 8 8 8 8 8 7 6 6 6 6 5 5 4 4 4 3 3 3
3 3 3 2 2 5 5 2 1 2 5 3 3 4 5 4 4 6 6 7 8 8 8 8 8 8 8 9 8 8 8 7 7 7 7 6 5 4 5 5 4 3 3 3
1 1 2 4 5 7 5 2 2 2 5 2 3 4 3 3 5 7 8 8 8 8 8 8 8 7 8 8 8 8 8 8 8 7 7 5 5 4 4 4 3 3 3 3
6 5 4 4 4 7 3 3 4 6 3 2 3 4 4 5 6 7 8 8 8 8 8 8 7 8 8 8 7 8 8 9 8 7 6 5 5 4 3 2 2 2 3 3
7 7 6 8 8 4 4 5 4 2 2 3 3 4 4 5 7 8 8 8 8 8 8 7 7 8 8 8 7 8 9 9 8 6 5 5 5 3 3 2 1 1 2 2
4 3 4 5 8 6 6 5 3 3 3 3 3 4 4 6 7 7 8 8 8 8 7 7 7 8 9 8 8 7 9 8 7 5 5 4 4 4 3 2 1 1 1 2
6 4 4 6 7 6 5 5 5 4 3 3 4 4 5 5 6 6 7 7 7 8 7 6 6 7 8 8 8 9 8 6 5 5 5 4 3 3 3 3 2 2 1 2
5 7 7 7 6 5 5 4 3 3 4 4 4 5 5 5 6 6 6 6 6 7 7 6 6 7 8 8 8 8 7 5 4 5 5 4 3 3 3 2 3 4 2 1
Wind_Direction
15 51 25 313 252 237 246 252 267 269 270 171 190 233 294 321 47 34 3 349 336 315 322 356 11 13 17 26 50 95 100 118 126 168 181 175 177 181 182 175 175 170 166 161
34 8 300 302 325 326 310 293 299 299 308 213 184 246 276 303 155 223 295 324 321 328 344 352 0 15 14 13 2 355 122 263 187 210 209 196 184 185 187 178 175 171 170 167
67 300 324 353 357 339 295 250 273 295 333 86 181 270 266 273 322 2 345 330 335 335 327 332 343 352 1 2 338 322 269 261 256 274 218 167 153 150 163 181 186 178 173 175
8 329 351 4 351 336 283 286 279 278 300 269 201 243 265 268 320 342 332 332 335 340 340 338 342 344 345 334 326 316 311 278 234 194 182 183 186 186 194 192 190 184 175 176
341 342 358 355 327 324 278 294 281 257 208 292 295 197 278 308 316 317 324 329 335 346 347 343 341 336 336 338 336 333 326 297 264 230 197 199 217 201 189 176 173 179 178 177
313 319 348 319 308 302 307 318 338 27 106 251 242 189 279 299 294 314 332 344 349 348 349 348 348 352 351 352 352 350 343 323 303 276 220 208 209 203 185 180 181 183 184 182
340 340 348 351 344 349 14 45 30 359 333 251 246 175 242 296 317 318 326 340 346 355 354 354 357 356 350 349 350 348 347 331 325 303 263 243 218 204 197 192 191 186 187 192
350 324 337 355 358 318 337 99 145 219 237 283 311 217 233 320 332 1 10 359 359 359 355 350 346 345 344 340 342 344 340 330 328 308 275 282 243 217 212 206 198 194 195 199
335 295 313 327 326 2 7 13 188 170 262 268 270 297 315 342 4 8 6 4 359 354 350 346 341 340 339 337 333 334 333 328 330 322 298 285 265 232 222 215 206 198 193 192
196 283 302 317 347 16 84 114 71 89 144 273 290 282 276 315 332 345 353 350 346 348 347 344 341 338 335 331 328 328 334 326 326 327 312 293 284 256 237 212 206 201 193 186
116 237 311 343 358 320 6 35 61 127 178 195 268 277 252 251 295 316 329 334 337 341 340 338 335 335 335 338 339 338 338 337 335 329 319 299 292 271 249 223 213 202 192 187
90 132 285 278 273 303 156 168 144 165 271 218 215 271 279 242 314 329 329 333 335 335 334 332 331 338 345 345 343 339 330 327 324 320 313 298 296 277 248 242 227 206 194 193
107 105 344 337 339 360 8 336 136 157 163 204 210 263 310 334 334 332 328 328 331 334 337 338 342 345 344 343 343 337 330 320 317 315 313 310 307 290 260 250 246 225 204 192
103 135 182 222 255 272 292 300 308 152 192 236 237 260 294 312 317 321 325 322 322 328 334 340 343 341 340 339 338 335 327 323 316 314 312 309 304 290 275 256 255 239 216 198
99 198 239 255 264 268 276 281 267 214 214 220 252 262 281 296 301 307 318 322 329 336 338 340 340 337 336 336 335 331 326 319 311 306 304 301 303 291 281 261 256 247 221 206
88 193 298 288 272 277 294 290 262 245 238 239 265 278 277 288 303 314 322 330 333 331 332 333 335 335 334 331 328 326 322 320 311 294 288 297 301 294 287 271 260 256 235 210
155 141 286 280 309 329 298 266 226 231 227 215 245 266 304 319 322 322 324 328 325 327 327 328 328 326 324 322 320 317 314 318 317 307 295 295 292 285 283 273 262 254 240 215
161 156 190 291 3 269 253 227 201 229 259 242 257 281 297 294 303 303 306 312 321 328 329 327 325 324 322 322 322 320 317 317 314 309 305 300 288 279 282 269 255 256 240 214
160 158 167 206 274 278 288 252 199 220 281 249 244 280 298 304 316 314 313 325 317 316 317 316 317 315 320 323 323 322 322 322 322 317 308 303 287 277 275 263 255 252 235 221
81 108 146 167 223 255 262 267 238 112 288 254 226 275 303 332 320 299 318 323 318 317 317 317 319 322 325 326 327 326 325 325 320 313 308 302 287 274 267 259 254 248 227 218
121 124 187 207 234 266 264 266 112 164 265 248 217 258 272 252 251 279 305 311 314 316 317 320 321 321 321 323 327 326 326 321 315 315 317 309 294 278 270 265 254 234 217 208
182 182 198 179 212 258 230 144 185 227 262 233 247 253 258 268 285 296 304 309 316 318 320 323 323 319 320 326 327 324 320 317 320 322 319 315 307 296 294 282 266 229 201 197
200 196 191 196 218 243 195 210 235 215 235 256 255 269 271 281 289 298 304 308 311 314 317 320 319 318 321 327 328 321 316 320 322 324 326 323 323 325 324 309 281 251 205 190
249 198 198 245 260 256 250 251 255 233 242 256 255 268 272 277 285 293 301 309 313 314 316 321 323 322 321 326 326 319 319 324 326 332 332 331 337 342 344 333 309 263 220 204
223 186 211 252 273 296 277 247 250 250 256 271 277 271 267 273 286 290 297 303 307 312 316 320 319 317 318 324 326 327 328 335 344 344 343 341 342 342 344 340 324 294 258 222
200 191 198 233 232 219 261 264 241 242 258 260 272 285 284 276 282 290 293 296 302 308 315 319 319 320 319 323 326 328 334 345 349 346 346 346 345 344 344 344 344 349 313 321
Height
1514 1517 1520 1519 1516 1515 1513 1514 1513 1510 1506 1509 1510 1511 1511 1509 1508 1508 1508 1508 1508 1508 1508 1508 1508 1508 1508 1509 1510 1511 1512 1514 1515 1517 1519 1521 1523 1525 1528 1531 1533 1535 1537 1539
1520 1522 1520 1517 1515 1514 1513 1514 1514 1509 1506 1508 1510 1511 1510 1509 1509 1509 1509 1508 1507 1506 1505 1506 1506 1506 1506 1507 1508 1508 1509 1511 1512 1514 1516 1518 1520 1522 1525 1527 1529 1532 1534 1536
1525 1524 1518 1517 1516 1515 1514 1515 1514 1512 1508 1508 1510 1512 1511 1509 1508 1508 1508 1507 1507 1506 1505 1504 1504 1504 1504 1505 1505 1506 1507 1508 1510 1511 1513 1516 1518 1519 1521 1523 1526 1528 1531 1533
1525 1523 1520 1518 1518 1517 1516 1512 1511 1509 1513 1515 1512 1516 1513 1509 1508 1508 1507 1507 1506 1505 1504 1504 1503 1503 1503 1504 1504 1504 1505 1506 1508 1509 1510 1511 1513 1514 1516 1519 1522 1525 1528 1530
1528 1525 1523 1521 1520 1518 1516 1512 1510 1509 1513 1517 1515 1518 1516 1511 1511 1510 1508 1507 1505 1505 1504 1503 1503 1502 1502 1502 1503 1503 1503 1503 1505 1506 1507 1509 1511 1513 1515 1517 1519 1522 1524 1527
1529 1526 1525 1523 1520 1518 1515 1512 1510 1512 1516 1520 1517 1518 1518 1517 1515 1512 1509 1507 1505 1504 1503 1502 1502 1501 1501 1501 1501 1501 1500 1500 1501 1503 1504 1506 1507 1509 1511 1513 1515 1518 1520 1523
1533 1528 1526 1524 1521 1519 1519 1521 1524 1524 1524 1520 1515 1516 1520 1517 1515 1513 1510 1508 1506 1503 1502 1500 1500 1499 1499 1498 1498 1498 1498 1498 1498 1499 1501 1503 1504 1506 1507 1509 1512 1514 1516 1518
1542 1537 1530 1527 1527 1526 1525 1526 1530 1529 1525 1522 1518 1518 1521 1517 1515 1513 1511 1509 1506 1503 1502 1500 1499 1498 1497 1497 1496 1496 1496 1496 1496 1497 1498 1499 1501 1502 1504 1506 1508 1510 1512 1515
1546 1540 1531 1528 1527 1526 1526 1528 1529 1533 1531 1529 1524 1522 1519 1516 1514 1512 1510 1508 1506 1504 1501 1500 1498 1497 1496 1495 1494 1494 1494 1494 1494 1495 1495 1496 1497 1499 1501 1503 1505 1507 1509 1512
1545 1545 1535 1531 1528 1527 1528 1529 1532 1534 1531 1527 1528 1528 1524 1519 1516 1513 1511 1509 1507 1504 1501 1499 1497 1496 1494 1493 1492 1492 1492 1492 1492 1492 1493 1493 1494 1496 1497 1499 1502 1504 1506 1508
1543 1547 1541 1536 1535 1534 1533 1534 1535 1536 1535 1534 1531 1530 1520 1519 1516 1514 1512 1510 1508 1505 1502 1499 1497 1495 1493 1491 1490 1490 1489 1489 1489 1489 1490 1491 1492 1493 1495 1496 1498 1500 1502 1504
1544 1548 1548 1541 1535 1533 1533 1536 1537 1538 1538 1540 1537 1533 1519 1517 1515 1514 1512 1510 1507 1504 1502 1499 1496 1493 1490 1488 1487 1486 1486 1486 1486 1486 1487 1488 1488 1490 1491 1492 1494 1496 1499 1501
1544 1549 1550 1543 1541 1538 1537 1537 1537 1539 1540 1540 1538 1531 1518 1517 1515 1514 1512 1509 1506 1503 1500 1497 1494 1491 1488 1486 1484 1483 1483 1483 1483 1483 1483 1483 1484 1485 1487 1488 1490 1492 1495 1497
1541 1548 1550 1548 1543 1542 1541 1537 1536 1537 1540 1539 1535 1528 1520 1517 1515 1512 1510 1508 1505 1502 1498 1495 1492 1489 1487 1484 1482 1481 1480 1479 1479 1479 1479 1479 1480 1481 1482 1484 1486 1488 1490 1493
1542 1547 1547 1544 1540 1539 1537 1534 1534 1535 1535 1535 1530 1527 1519 1517 1515 1512 1509 1506 1503 1500 1497 1494 1491 1488 1485 1483 1481 1479 1477 1477 1476 1476 1476 1476 1476 1477 1478 1479 1481 1483 1486 1488
1543 1547 1546 1543 1538 1536 1534 1530 1530 1530 1531 1530 1527 1523 1516 1515 1513 1510 1507 1504 1502 1499 1496 1493 1490 1487 1484 1481 1479 1477 1475 1473 1473 1472 1472 1472 1473 1473 1473 1475 1477 1479 1481 1483
1545 1547 1547 1545 1540 1537 1536 1529 1528 1528 1527 1526 1524 1520 1515 1513 1511 1509 1506 1503 1501 1498 1495 1492 1488 1485 1483 1480 1477 1474 1472 1470 1469 1469 1469 1469 1469 1469 1469 1471 1473 1474 1476 1478
1544 1546 1548 1546 1545 1542 1530 1525 1525 1525 1522 1521 1519 1517 1515 1513 1510 1508 1505 1503 1500 1497 1493 1490 1487 1484 1481 1478 1475 1472 1470 1468 1466 1465 1464 1465 1465 1465 1466 1467 1468 1470 1472 1474
1539 1543 1547 1548 1548 1539 1527 1524 1524 1525 1521 1518 1517 1515 1513 1511 1508 1504 1503 1501 1499 1496 1492 1488 1485 1482 1479 1476 1473 1470 1467 1465 1463 1461 1461 1461 1461 1461 1462 1463 1464 1466 1467 1469
1540 1542 1547 1550 1546 1537 1525 1521 1520 1523 1521 1514 1513 1513 1511 1510 1510 1505 1502 1499 1496 1493 1490 1486 1483 1479 1476 1473 1470 1467 1464 1462 1460 1459 1457 1457 1457 1457 1458 1459 1460 1462 1464 1466
1544 1547 1549 1549 1546 1533 1522 1520 1520 1526 1518 1512 1511 1510 1510 1508 1507 1503 1499 1496 1494 1490 1487 1483 1480 1476 1473 1470 1467 1464 1461 1459 1457 1455 1454 1454 1454 1454 1455 1455 1457 1458 1460 1462
1540 1544 1547 1547 1546 1533 1518 1518 1519 1516 1511 1510 1509 1508 1507 1505 1502 1500 1497 1493 1490 1487 1483 1480 1477 1473 1470 1467 1464 1461 1458 1456 1454 1453 1451 1451 1451 1451 1451 1452 1454 1455 1457 1458
1533 1531 1531 1531 1525 1516 1514 1512 1511 1510 1509 1508 1507 1505 1504 1502 1499 1496 1493 1490 1487 1484 1480 1477 1474 1470 1467 1465 1462 1458 1456 1454 1452 1450 1448 1448 1448 1448 1449 1449 1450 1452 1453 1455
1526 1524 1525 1523 1514 1511 1510 1509 1509 1508 1507 1506 1504 1503 1501 1498 1495 1493 1489 1486 1483 1480 1477 1474 1471 1467 1464 1462 1459 1457 1454 1452 1449 1447 1446 1445 1445 1445 1446 1447 1447 1449 1450 1451
1519 1520 1520 1518 1511 1508 1506 1506 1505 1505 1504 1502 1501 1499 1497 1495 1492 1489 1486 1483 1480 1477 1474 1472 1468 1465 1462 1460 1457 1454 1452 1450 1448 1446 1445 1444 1444 1443 1444 1444 1445 1446 1447 1448
1512 1513 1514 1510 1506 1506 1503 1503 1503 1502 1500 1499 1498 1496 1494 1492 1489 1486 1483 1481 1478 1475 1472 1469 1466 1464 1461 1458 1455 1453 1450 1448 1446 1445 1444 1443 1442 1442 1442 1442 1443 1444 1445 1446